Regional Weather Roundup
Issued by NWS

Home | Current Version | Previous Version | Graphics & Text | Print | Product List | Glossary On
Versions: 1 2 3 4 5 6 7 8 9 10 11 12 13 14 15 16 17 18 19 20 21 22 23 24 25 26 27 28 29 30 31 32 33 34 35 36 37 38 39 40 41 42 43 44 45 46 47 48 49 50
000
ASUS45 KPSR 240300
RWRAZ

PRELIMINARY ARIZONA REGIONAL HOURLY WEATHER ROUNDUP
NATIONAL WEATHER SERVICE PHOENIX AZ
800 PM MST THU OCT 23 2014

NOTE: FAIR INDICATES FEW OR NO CLOUDS BELOW 12,000 FEET WITH NO
SIGNIFICANT WEATHER AND/OR OBSTRUCTIONS TO VISIBILITY.

AZZ001>003-036-240400-
NORTHWEST ARIZONA

CITY           SKY/WX    TMP DP  RH WIND       PRES   REMARKS
KINGMAN        CLEAR     63  40  42 S10       30.11R
$$

AZZ004>008-015-016-018-240400-
NORTH CENTRAL ARIZONA

CITY           SKY/WX    TMP DP  RH WIND       PRES   REMARKS
GRAND CANYON   PTCLDY    44  29  55 CALM      30.31S
PRESCOTT       CLEAR     59  40  49 S7        30.22R
FLAGSTAFF      PTCLDY    46  34  62 CALM      30.35R
PAYSON         PTCLDY    63  37  39 CALM      30.25R
PAGE           PTCLDY    65  32  29 SE7       30.16S
$$

AZZ009>014-017-240400-
NORTHEAST ARIZONA

CITY           SKY/WX    TMP DP  RH WIND       PRES   REMARKS
WINSLOW        NOT AVBL
SAINT JOHNS    MOCLDY    57  39  51 S3        30.26R
WINDOW ROCK    MOCLDY    52  30  43 CALM      30.33R
$$

AZZ023-240400-
GREATER PHOENIX AREA

CITY           SKY/WX    TMP DP  RH WIND       PRES   REMARKS
PHOENIX        PTCLDY    80  52  37 SW5       29.94S
GLENDALE       PTCLDY    79  54  41 CALM      29.96S
LUKE AFB       CLEAR     74  53  47 NW6       29.95R
DEER VALLEY    CLEAR     75  48  38 CALM      29.97S
SCOTTSDALE     PTCLDY    80  48  32 N3        29.99R
MESA-FALCON    PTCLDY    81  46  30 N7        29.96S
MESA-GATEWAY   PTCLDY    75  50  41 CALM      29.99R
CHANDLER       PTCLDY    79  50  36 CALM      29.96S
$$

AZZ027-028-240400-
SOUTHWEST MARICOPA COUNTY AND PINAL COUNTY

CITY           SKY/WX    TMP DP  RH WIND       PRES   REMARKS
CASA GRANDE    CLEAR     75  46  35 N6        29.97S
GILA BEND      CLEAR     80  48  31 CALM      29.95R
$$

AZZ503-504-507>509-240400-
SOUTHEAST ARIZONA

CITY           SKY/WX    TMP DP  RH WIND       PRES   REMARKS
TUCSON         CLEAR     78  46  32 NW5       30.05R
RYAN FIELD       N/A     75  50  41 W6        30.04R
NOGALES        CLEAR     65  44  46 E3        30.12R
SIERRA VISTA   CLEAR     64  45  48 SW5       30.18S
SAFFORD        CLEAR     68  51  54 E5        30.08R
$$

AZZ020-021-025-026-031-240400-
SOUTHWEST ARIZONA

CITY           SKY/WX    TMP DP  RH WIND       PRES   REMARKS
YUMA           NOT AVBL
$$

CAZ031-033-041-043-047-048-061-240400-
SOUTHERN CALIFORNIA

CITY           SKY/WX    TMP DP  RH WIND       PRES   REMARKS
DOWNTOWN L.A.  CLEAR     71  58  63 CALM      29.92R
L.A. AIRPORT   CLEAR     69  65  86 W6        29.93R
SAN DIEGO      PTCLDY    72  64  76 CALM      29.94S
BURBANK        CLEAR     76  52  43 CALM      29.94R
ONTARIO        PTCLDY    77  49  37 S3        29.95R
RIVERSIDE      CLEAR     76  46  34 CALM      29.95R
PALM SPRINGS   CLEAR     82  49  31 N6        29.94R
EL CENTRO NAS  PTCLDY    79  52  38 CALM      29.88R
IMPERIAL       CLEAR     77  51  40 CALM      29.87R
BLYTHE         CLEAR     83  46  27 E5        29.90R
$$

NVZ020-UTZ003-240400-
SOUTHERN NEVADA-UTAH

CITY           SKY/WX    TMP DP  RH WIND       PRES   REMARKS
LAS VEGAS      NOT AVBL
SALT LAKE CITY CLOUDY    57  38  48 SE5       30.04F
$$

NMZ009-TXZ055-240400-
NEW MEXICO-WEST TEXAS

CITY           SKY/WX    TMP DP  RH WIND       PRES   REMARKS
ALBUQUERQUE    PTCLDY    66  35  31 S5        30.25R
EL PASO        CLEAR     68  53  58 E3        30.16R
$$


........................KEY........................
SKY/WX - SKY CONDITION/WEATHER
TMP    - TEMPERATURE IN FAHRENHEIT
DP     - DEW POINT IN FAHRENHEIT
RH     - RELATIVE HUMIDITY IN PERCENT
WIND   - DIRECTION AND SPEED IN MILES PER HOUR (MPH)
VRB    - VARIABLE WIND DIRECTION
PRES   - MEAN SEA LEVEL PRESSURE IN INCHES OF MERCURY
         F - FALLING PRESSURE   R - RISING PRESSURE
         S - STEADY PRESSURE
VSB    - VISIBILITY IN MILES
HX     - HEAT INDEX IN FAHRENHEIT
WCI    - WIND CHILL INDEX IN FAHRENHEIT
TC     - TEMPERATURE IN CELSIUS WHICH IS ALSO KNOWN AS
         TEMPERATURE IN CENTIGRADE
AFB    - AIR FORCE BASE
         LUKE AFB IS LUKE AIR FORCE BASE
         DAVIS-MONTHAN IS DAVIS-MONTHAN AIR FORCE BASE
NAS    - NAVAL AIR STATION
         EL CENTRO NAS IS EL CENTRO NAVAL AIR STATION
N/A    - NOT AVAILABLE



USA.gov is the U.S. government's official web portal to all federal, state and local government web resources and services.